Oak Grove Middle School FL US WEATHERSTEM current weather conditions

sailwx.info

Air temperature 12.4° C
Dewpoint 11.2° C

Last reported at 2019-Nov-18 07:50 UTC.
Time now 2019-Nov-18 08:59 UTC

Location: N 27°57' W 082°45'.
View on Google Maps.

See reports from other nearby stations

  
Tides and Currents Weather Stations Pressure Air Temp Water Temp Dewpoint Dewpoint Depression Visibility Wind Speed Wind Dir Waves Ship Positions
date/time (UTC)wind fromknots sea level pressurealtimeterstation pressurevisibilityair tempwater tempwave heightnotes
2019-Nov-18 07:50 12.4
2019-Nov-18 07:40 138 0 gusting 3 12.4
2019-Nov-18 07:30 137 1 gusting 3 12.3
2019-Nov-18 07:20 12.3
2019-Nov-18 07:10 140 0 gusting 1 12.3
2019-Nov-18 07:00 12.4
2019-Nov-18 06:50 142 1 gusting 2 12.4
2019-Nov-18 06:40 12.4
2019-Nov-18 06:30 124 1 gusting 1 12.3
2019-Nov-18 06:20 121 2 gusting 3 12.3
2019-Nov-18 06:10 113 1 gusting 3 12.2
2019-Nov-18 06:00 104 1 gusting 3 12.2
2019-Nov-18 05:50 087 0 gusting 2 12.2
2019-Nov-18 05:40 093 0 gusting 3 12.1
2019-Nov-18 05:30 092 3 gusting 5 12.1
2019-Nov-18 05:20 066 1 gusting 3 12.0
2019-Nov-18 05:10 066 0 gusting 3 11.8
2019-Nov-18 05:00 059 0 gusting 3 11.7
2019-Nov-18 04:50 070 2 gusting 2 11.6
2019-Nov-18 04:40 11.4
2019-Nov-18 04:30 057 1 gusting 1 11.4
2019-Nov-18 04:20 11.4
2019-Nov-18 04:10 11.5
2019-Nov-18 04:00 11.6
2019-Nov-18 03:50 081 3 gusting 6 11.7
2019-Nov-18 03:40 077 2 gusting 6 11.8
2019-Nov-18 03:30 077 2 gusting 6 11.8
2019-Nov-18 03:20 051 0 gusting 6 11.9
2019-Nov-18 03:10 107 5 gusting 6 12.0
2019-Nov-18 03:00 12.1
2019-Nov-18 02:50 093 3 gusting 6 12.1
2019-Nov-18 02:40 044 2 gusting 6 12.1
2019-Nov-18 02:30 085 4 gusting 6 12.1
2019-Nov-18 02:20 057 0 gusting 5 12.1
2019-Nov-18 02:10 059 3 gusting 6 12.2
2019-Nov-18 02:00 081 3 gusting 3 12.2
2019-Nov-18 01:50 055 1 gusting 5 12.2
2019-Nov-18 01:40 074 3 gusting 6 12.2
2019-Nov-18 01:30 079 3 gusting 5 12.2
2019-Nov-18 01:20 015 2 gusting 5 12.2
2019-Nov-18 01:10 017 1 gusting 5 12.2
2019-Nov-18 01:00 351 2 gusting 3 12.3
2019-Nov-18 00:50 328 0 gusting 5 12.3
2019-Nov-18 00:40 12.2
2019-Nov-18 00:30 005 1 gusting 6 12.2
2019-Nov-18 00:20 355 1 gusting 6 12.2
2019-Nov-18 00:10 011 2 gusting 6 12.3
2019-Nov-18 00:00 341 12.3
2019-Nov-17 23:50 027 3 gusting 5 12.3
2019-Nov-17 23:40 319 5 gusting 7 12.4
2019-Nov-17 23:30 028 2 gusting 4 12.4
2019-Nov-17 23:20 12.4
2019-Nov-17 23:10 351 1 gusting 6 12.4
2019-Nov-17 23:00 022 1 gusting 5 12.4
2019-Nov-17 22:50 327 3 gusting 6 12.6
2019-Nov-17 22:40 042 0 gusting 7 12.6
2019-Nov-17 22:30 046 12.8
2019-Nov-17 22:20 12.8
2019-Nov-17 22:10 030 2 gusting 6 12.9
2019-Nov-17 22:00 005 5 gusting 6 13.0
2019-Nov-17 21:50 355 2 gusting 6 13.0
2019-Nov-17 21:40 037 1 gusting 8 13.1
2019-Nov-17 21:30 350 3 gusting 7 13.1
2019-Nov-17 21:20 026 0 gusting 7 13.1
2019-Nov-17 21:10 044 4 gusting 5 13.1
2019-Nov-17 21:00 024 5 gusting 8 13.1
2019-Nov-17 20:50 005 2 gusting 7 13.1
2019-Nov-17 20:40 344 0 gusting 6 13.2
2019-Nov-17 20:30 360 3 gusting 6 13.1
2019-Nov-17 20:20 360 2 gusting 6 13.2
2019-Nov-17 20:10 292 3 gusting 6 13.1
2019-Nov-17 20:00 309 0 gusting 7 13.1
2019-Nov-17 19:50 275 3 gusting 6 13.1
2019-Nov-17 19:40 024 1 gusting 6 13.1
2019-Nov-17 19:30 046 3 gusting 6 13.0
2019-Nov-17 19:20 350 4 gusting 6 12.9
2019-Nov-17 19:10 333 2 gusting 8 13.1
2019-Nov-17 19:00 013 12.9
2019-Nov-17 18:50 024 2 gusting 5 12.9
2019-Nov-17 18:40 046 2 gusting 4 13.1
2019-Nov-17 18:30 348 0 gusting 6 12.9
2019-Nov-17 18:20 015 2 gusting 6 12.9
2019-Nov-17 18:10 284 5 gusting 5 12.9
2019-Nov-17 18:00 012 1 gusting 6 12.9
2019-Nov-17 17:50 035 3 gusting 5 12.9
2019-Nov-17 17:40 032 0 gusting 6 12.8
2019-Nov-17 17:30 313 2 gusting 5 12.8
2019-Nov-17 17:20 005 1 gusting 4 12.9
2019-Nov-17 17:10 228 1 gusting 6 12.8
2019-Nov-17 17:00 074 3 gusting 6 12.8
2019-Nov-17 16:50 325 1 gusting 6 12.8
2019-Nov-17 16:40 12.8
2019-Nov-17 16:30 283 1 gusting 4 12.7
2019-Nov-17 16:20 295 2 gusting 6 12.5
2019-Nov-17 16:10 279 1 gusting 3 12.7
2019-Nov-17 16:00 280 1 gusting 6 12.4
2019-Nov-17 15:50 335 0 gusting 3 12.4
2019-Nov-17 15:40 045 2 gusting 3 12.1
2019-Nov-17 15:30 060 3 gusting 4 12.1
2019-Nov-17 15:20 12.1
2019-Nov-17 14:50 017 2 gusting 5 11.7
2019-Nov-17 14:40 064 1 gusting 4 11.4
2019-Nov-17 14:30 342 2 gusting 5 11.4
2019-Nov-17 14:20 065 1 gusting 7 11.2
2019-Nov-17 14:00 042 1 gusting 5 11.2
2019-Nov-17 13:50 316 0 gusting 3 11.2
2019-Nov-17 13:40 051 2 gusting 6 11.0
2019-Nov-17 13:30 046 0 gusting 4 11.0
2019-Nov-17 13:20 103 2 gusting 7 10.9
2019-Nov-17 13:10 10.8
2019-Nov-17 13:00 10.8
2019-Nov-17 12:50 339 3 gusting 4 10.8
2019-Nov-17 12:40 082 1 gusting 3 10.8
2019-Nov-17 12:30 030 10.8
2019-Nov-17 12:20 037 0 gusting 6 10.8
2019-Nov-17 12:10 054 3 gusting 7 10.7
2019-Nov-17 12:00 044 1 gusting 4 10.8
2019-Nov-17 11:50 014 2 gusting 5 10.8
2019-Nov-17 11:40 024 1 gusting 6 10.8
2019-Nov-17 11:30 054 10.8
2019-Nov-17 11:20 005 2 gusting 7 10.7
2019-Nov-17 11:10 067 1 gusting 4 10.7
2019-Nov-17 11:00 048 1 gusting 5 10.6
2019-Nov-17 10:50 316 4 gusting 4 10.6
2019-Nov-17 10:40 049 0 gusting 4 10.7
2019-Nov-17 10:20 10.7
2019-Nov-17 10:00 026 2 gusting 5 10.8
2019-Nov-17 09:50 033 2 gusting 6 10.8
2019-Nov-17 09:40 005 1 gusting 4 10.8
2019-Nov-17 09:30 061 4 gusting 6 10.7
2019-Nov-17 09:20 019 1 gusting 6 10.7
2019-Nov-17 09:10 048 2 gusting 7 10.7
2019-Nov-17 09:00 053 1 gusting 7 10.8
2019-Nov-17 08:50 067 1 gusting 6 10.7
2019-Nov-17 08:40 035 1 gusting 5 10.7
2019-Nov-17 08:30 005 3 gusting 5 10.7
2019-Nov-17 08:20 032 2 gusting 4 10.7
2019-Nov-17 08:10 009 3 gusting 5 10.6
2019-Nov-17 08:00 360 4 gusting 5 10.6
2019-Nov-17 07:50 053 0 gusting 4 10.6
2019-Nov-17 07:40 038 10.6
2019-Nov-17 07:30 360 5 gusting 5 10.6
2019-Nov-17 07:20 337 10.5
2019-Nov-17 07:10 078 0 gusting 3 10.4
2019-Nov-17 07:00 019 3 gusting 5 10.4
2019-Nov-17 06:50 344 0 gusting 5 10.5
2019-Nov-17 06:40 360 2 gusting 5 10.4
2019-Nov-17 06:30 058 10.4
2019-Nov-17 06:20 015 2 gusting 6 10.5
2019-Nov-17 06:10 029 1 gusting 6 10.5
2019-Nov-17 06:00 019 7 gusting 10 10.6
2019-Nov-17 05:50 324 1 gusting 7 10.6
2019-Nov-17 05:40 013 2 gusting 6 10.6
2019-Nov-17 05:30 038 0 gusting 9 10.6
2019-Nov-17 05:20 021 1 gusting 7 10.6
2019-Nov-17 05:10 054 2 gusting 7 10.6
2019-Nov-17 05:00 040 0 gusting 10 10.7
2019-Nov-17 04:50 018 1 gusting 6 10.7
2019-Nov-17 04:40 038 5 gusting 7 10.8
2019-Nov-17 04:30 277 0 gusting 6 10.8
2019-Nov-17 04:20 042 2 gusting 7 10.8
2019-Nov-17 04:10 036 6 gusting 9 10.8
2019-Nov-17 04:00 028 3 gusting 8 10.9
2019-Nov-17 03:50 061 1 gusting 6 11.1
2019-Nov-17 03:40 046 8 gusting 8 11.1
2019-Nov-17 03:30 005 1 gusting 8 11.1
2019-Nov-17 03:20 033 5 gusting 10 11.2
2019-Nov-17 03:10 040 2 gusting 12 11.2
2019-Nov-17 03:00 044 7 gusting 10 11.3
2019-Nov-17 02:50 036 6 gusting 13 11.5
2019-Nov-17 02:40 080 4 gusting 13 11.7
2019-Nov-17 02:30 013 3 gusting 11 11.9
2019-Nov-17 02:20 071 2 gusting 12 12.1
2019-Nov-17 02:10 025 6 gusting 14 12.3
2019-Nov-17 02:00 032 6 gusting 11 12.5
2019-Nov-17 01:50 005 6 gusting 15 12.7
2019-Nov-17 01:40 350 0 gusting 12 12.9
2019-Nov-17 01:30 346 4 gusting 12 12.9
2019-Nov-17 01:20 333 10 gusting 13 12.9
2019-Nov-17 01:10 005 10 gusting 13 12.9
2019-Nov-17 01:00 028 8 gusting 11 13.1
2019-Nov-17 00:50 014 4 gusting 9 13.1
2019-Nov-17 00:40 313 3 gusting 10 13.1
2019-Nov-17 00:30 296 2 gusting 11 13.1
2019-Nov-17 00:20 041 3 gusting 9 13.2
2019-Nov-17 00:10 059 8 gusting 12 13.1
2019-Nov-17 00:00 049 8 gusting 13 13.2
2019-Nov-16 23:50 338 5 gusting 13 13.3
2019-Nov-16 23:40 121 2 gusting 7 13.3
2019-Nov-16 23:30 009 2 gusting 11 13.3
2019-Nov-16 23:20 005 6 gusting 12 13.5
2019-Nov-16 23:10 347 5 gusting 11 13.6
2019-Nov-16 23:00 042 8 gusting 10 13.7
2019-Nov-16 22:50 019 8 gusting 8 13.8
2019-Nov-16 22:40 020 0 gusting 8 13.8
2019-Nov-16 22:30 348 1 gusting 6 13.8
2019-Nov-16 22:20 292 2 gusting 9 13.8
2019-Nov-16 22:10 355 5 gusting 12 13.8
2019-Nov-16 22:00 026 4 gusting 8 13.9
2019-Nov-16 21:50 011 0 gusting 9 14.1
2019-Nov-16 21:40 011 2 gusting 8 14.1
2019-Nov-16 21:30 325 3 gusting 13 14.1
2019-Nov-16 21:10 279 0 gusting 11 14.3
2019-Nov-16 21:00 017 6 gusting 10 14.4
2019-Nov-16 20:50 340 1 gusting 15 14.5
2019-Nov-16 20:40 019 12 gusting 12 14.8
2019-Nov-16 20:30 312 4 gusting 11 14.8
2019-Nov-16 20:20 304 6 gusting 11 15.0
2019-Nov-16 20:10 026 1 gusting 10 14.9
2019-Nov-16 20:00 339 4 gusting 10 15.1
2019-Nov-16 19:50 264 0 gusting 12 15.2
2019-Nov-16 19:40 009 4 gusting 10 15.2
2019-Nov-16 19:30 360 5 gusting 12 15.2
2019-Nov-16 19:20 323 3 gusting 7 15.4
2019-Nov-16 19:10 323 3 gusting 11 15.4
2019-Nov-16 19:00 322 8 gusting 12 15.5
2019-Nov-16 18:50 308 0 gusting 11 15.6
2019-Nov-16 18:40 344 5 gusting 11 15.7
2019-Nov-16 18:30 265 0 gusting 10 15.8
2019-Nov-16 18:20 291 1 gusting 10 15.8
2019-Nov-16 18:10 256 6 gusting 9 15.8
2019-Nov-16 18:00 288 4 gusting 10 15.9
2019-Nov-16 17:50 278 3 gusting 10 15.8
2019-Nov-16 17:40 335 4 gusting 11 16.0
2019-Nov-16 17:30 331 4 gusting 10 16.1
2019-Nov-16 17:20 348 5 gusting 9 16.1
2019-Nov-16 17:10 332 7 gusting 13 16.2
2019-Nov-16 17:00 284 10 gusting 13 16.2
2019-Nov-16 16:50 242 2 gusting 10 16.2
2019-Nov-16 16:40 254 4 gusting 11 16.1
2019-Nov-16 16:30 266 3 gusting 10 16.2
2019-Nov-16 16:20 330 4 gusting 10 16.2
2019-Nov-16 16:10 306 0 gusting 11 16.1
2019-Nov-16 16:00 304 6 gusting 7 16.1
2019-Nov-16 15:50 009 3 gusting 10 16.0
2019-Nov-16 15:40 319 3 gusting 9 15.9
2019-Nov-16 15:30 350 2 gusting 13 16.1
2019-Nov-16 15:20 314 5 gusting 8 15.9
2019-Nov-16 15:10 307 2 gusting 9 15.5
2019-Nov-16 15:00 295 1 gusting 10 15.7
2019-Nov-16 14:50 304 4 gusting 9 15.8
2019-Nov-16 14:40 299 1 gusting 13 15.8
2019-Nov-16 14:30 240 1 gusting 10 15.8
2019-Nov-16 14:20 299 6 gusting 11 15.6
2019-Nov-16 14:10 295 2 gusting 9 15.5
2019-Nov-16 14:00 013 2 gusting 8 15.8
2019-Nov-16 13:50 246 4 gusting 7 16.2
2019-Nov-16 13:40 288 2 gusting 10 16.2
2019-Nov-16 13:30 280 2 gusting 9 16.5
2019-Nov-16 13:20 293 6 gusting 10 16.6
2019-Nov-16 13:10 036 0 gusting 11 16.7
2019-Nov-16 13:00 294 0 gusting 11 16.7
2019-Nov-16 12:50 275 5 gusting 9 16.4
2019-Nov-16 12:40 105 2 gusting 8 16.3
2019-Nov-16 12:30 336 1 gusting 9 16.5
2019-Nov-16 12:20 325 4 gusting 14 16.8
2019-Nov-16 12:10 360 5 gusting 10 16.9
2019-Nov-16 12:00 303 2 gusting 9 16.8
2019-Nov-16 11:50 296 8 gusting 13 16.9
2019-Nov-16 11:40 297 4 gusting 9 16.8
2019-Nov-16 11:30 268 3 gusting 7 16.8
2019-Nov-16 11:20 337 2 gusting 8 16.8
2019-Nov-16 11:10 239 0 gusting 11 16.9
2019-Nov-16 11:00 251 4 gusting 10 17.0
2019-Nov-16 10:50 259 10 gusting 11 17.2
2019-Nov-16 10:40 268 3 gusting 12 17.2
2019-Nov-16 10:30 276 1 gusting 12 17.2
2019-Nov-16 10:20 309 2 gusting 12 17.3
2019-Nov-16 10:10 248 4 gusting 12 17.2
2019-Nov-16 10:00 207 1 gusting 12 17.2
2019-Nov-16 09:50 287 6 gusting 9 17.0
2019-Nov-16 09:40 291 6 gusting 9 16.9
2019-Nov-16 09:30 325 2 gusting 9 16.9
2019-Nov-16 09:20 292 7 gusting 11 16.9
2019-Nov-16 09:10 238 6 gusting 11 17.1
2019-Nov-16 09:00 279 2 gusting 8 17.2
2019-Nov-16 08:50 279 2 gusting 8 17.1
2019-Nov-16 08:40 302 1 gusting 9 17.1
2019-Nov-16 08:30 302 3 gusting 8 17.0
2019-Nov-16 08:20 17.1
2019-Nov-16 08:10 021 6 gusting 7 17.1
2019-Nov-16 08:00 270 1 gusting 12 17.2